Vertical_Velocity
0 -1 -2 -2 -8 -5 -1 -5 -1 1 -2 8 3 -11 -1 5 3 -5 11 4 -3 -1 -1 -1 -0 -0 -2 -0 -1 -2 -1 -0 -1 1 -0 -0 -1 0 0 -1 -0 0 0 1 -0 -1 -1 -1 -1
0 2 -0 1 -7 -1 -4 -2 -0 1 0 6 -4 2 -7 2 2 0 -1 5 1 -2 -1 -2 -1 -1 -2 -0 -1 -1 -0 -3 -1 -1 -0 -1 -0 -1 -1 -0 -0 -0 -1 -1 -1 -0 -0 -0 -1
5 -0 -3 -2 -1 -3 -3 0 0 3 3 -3 -2 -0 1 3 4 -0 2 2 0 -2 -1 -1 -1 -1 -2 -0 -1 -1 0 -0 -1 0 1 -1 -1 -1 -1 -0 -1 -0 -0 -1 -1 -1 -1 -1 -1
7 2 1 -4 -2 -6 -0 -0 0 0 2 -0 0 -3 -2 -3 -1 -2 2 2 -5 1 -1 -1 -1 0 -2 1 -1 -1 -1 -0 -1 -1 -1 -1 -0 -0 -1 -1 -0 -1 1 1 -0 -1 -1 -2 -1
3 2 -1 1 -3 -2 0 -2 -0 0 0 3 -0 3 -2 12 -1 -0 2 2 0 -2 -1 -1 -0 1 -1 0 -0 -0 -0 -0 -1 -1 -1 -1 -1 -2 -2 -2 -2 -1 -1 -1 -0 0 -0 -0 -1
2 3 -1 -0 -2 -1 0 2 -3 -0 3 5 -7 -2 2 8 1 5 1 -2 3 -1 -1 -0 -0 1 0 -0 -1 -0 1 1 -0 -0 -0 -1 -1 -1 -1 -0 -1 -1 -1 0 1 -0 0 1 0
-2 -2 -2 -1 -2 -1 -2 3 -2 -1 1 3 -2 -2 3 7 2 1 3 3 -2 1 0 -0 -1 0 -0 -1 -1 -1 -1 -0 -1 -0 1 1 -0 -0 0 1 1 0 -0 1 1 1 0 1 2
1 -4 2 -1 -3 -6 -1 -0 -0 -3 3 8 2 -3 -1 5 -1 1 1 -0 2 -1 0 -0 -2 -1 0 0 -1 -0 -1 -1 1 1 0 1 0 1 0 -1 -1 -1 1 0 -0 -0 -0 -0 1
5 -3 -0 -2 -1 -6 4 -2 4 6 -5 -4 -1 2 -3 -2 -0 1 -1 1 1 -0 -2 0 1 -1 -1 -0 -1 -1 -0 0 -0 1 -1 0 -1 -0 0 -0 1 -1 -0 -0 -1 0 1 2 2
0 -2 -3 -4 -1 -1 -1 -6 -4 -4 1 -0 -1 5 9 2 -0 -2 2 -1 1 -1 -2 -0 -0 -0 -3 -1 -1 -1 0 -1 -2 0 -1 1 -1 -0 -0 -1 -1 -0 -0 -0 0 -0 0 -0 0
-0 -3 -2 -5 -1 1 -0 2 1 -4 1 -5 -12 -4 2 2 2 -0 2 2 0 -0 1 1 -0 1 -1 -0 -2 -0 -1 -0 -1 -3 -1 3 -3 0 -0 -0 -0 -0 -0 -1 -1 1 0 1 0
-1 -2 -0 -0 3 1 -1 1 1 -1 1 -4 1 3 -1 1 1 0 1 -2 -3 -1 2 1 -1 1 -2 0 -0 -3 0 -0 -3 3 -2 -1 -1 -0 -1 -1 0 -1 -1 -1 -1 -0 0 -0 0
2 -1 0 -1 4 3 1 2 -2 2 -1 1 2 3 -1 1 2 1 2 4 2 -1 -0 -0 -1 0 -2 -0 -3 2 -3 -0 1 -2 1 -4 1 -2 -1 -0 -1 -2 -1 -1 -0 -1 -0 -0 -1
-5 -2 1 -1 2 2 -7 2 -6 4 3 3 2 0 0 -2 -1 1 2 1 -1 -2 -1 -0 -0 -2 3 -3 3 -4 -0 -0 1 -0 -1 0 -1 -1 -1 -1 -1 -1 -1 -1 -1 -2 -2 -2 -1
4 -2 0 1 -1 1 0 -6 -1 3 4 0 2 1 0 -1 2 -4 -1 1 -1 0 -1 0 -0 -0 -2 1 -4 2 -1 -3 -1 2 -1 -2 -1 -1 -1 -1 -2 -2 -1 -2 -1 -0 -1 -1 -0
-1 -4 -2 -2 0 0 -6 -0 1 4 -2 1 2 2 2 3 -2 2 -1 1 -0 -2 -2 0 -2 2 -2 -2 4 -6 -2 1 0 -1 -2 -1 -1 -1 -0 -1 -1 -2 -2 -0 -1 -2 -2 -2 -3
1 -2 -0 1 1 -1 -8 1 -2 4 1 1 0 -0 -0 4 4 1 -1 -2 -1 -0 -2 0 -2 1 -3 2 -4 1 -1 -2 1 -0 -1 -1 -1 -1 -1 -1 -1 -1 -1 -1 -2 -0 -3 -3 -3
-1 1 1 -1 -2 -1 -0 1 1 2 2 -3 -1 1 0 -1 -3 -3 -3 0 -1 -1 -1 -0 -0 0 0 -0 -2 -1 -1 -0 -1 -3 -1 -2 -1 -1 -1 -0 -1 -1 -1 -1 -0 -0 -0 1 -1
-1 -1 -1 -0 -0 -5 -1 -0 -1 0 2 4 3 1 -0 -5 0 1 2 -0 -1 -2 -1 -0 2 -0 -1 -0 -0 -2 -2 -1 -0 -2 -3 -1 -1 -1 -0 -2 -2 -1 -0 -0 0 -2 -4 -1 -2
-0 -1 0 1 0 -5 0 0 -0 0 0 -1 -2 3 2 5 3 0 -3 0 0 -0 1 -2 -0 -1 1 -0 -1 -1 -1 -1 -3 -2 -2 -2 -3 -1 -1 -1 -2 -2 -1 -0 -1 -2 -3 -3 1
0 -3 -0 -7 0 -1 -4 -2 2 -0 2 2 3 4 2 4 1 4 4 2 1 -0 -0 -0 1 -1 -0 1 -0 -1 -1 -1 -1 -3 -1 -2 -1 0 -0 -1 -2 -1 -1 -3 -1 -2 -1 -2 -2
-1 -0 -1 -0 -5 -6 -6 -7 -1 -1 1 1 1 1 0 2 3 1 0 -1 1 -0 -1 1 -1 -0 1 -1 -1 -1 -1 -1 -2 -3 -2 -1 0 -0 -1 -1 -0 -1 -2 -2 -1 1 -0 0 -3
-3 -0 -1 -1 -1 -5 -5 -9 -9 -0 1 -1 -1 1 2 1 3 3 2 1 -0 1 1 -0 -1 -0 -0 -1 -1 -0 -0 -2 -1 0 -1 -0 0 -1 -0 -1 0 -2 -1 -1 -2 -1 -0 2 -1
-0 -3 -4 -2 -2 -6 -2 -7 -7 -2 -6 1 2 2 1 -1 -3 -2 -1 -0 0 -0 -1 -0 0 0 0 0 0 0 -1 1 -1 0 -0 1 -1 -0 -2 -1 0 0 -1 -0 -0 -1 -1 0 2
-4 -5 -6 -9 -8 -8 -1 -4 -13 -2 -1 -5 -4 1 0 -0 -1 -1 -0 0 0 0 0 0 0 1 1 1 2 1 0 -2 -2 0 -1 -1 -0 -1 1 1 1 -1 -0 -0 -1 -0 -1 -1 -2
1 -5 -9 -6 -3 -5 -1 -4 -16 -1 2 2 2 -2 1 1 1 0 1 1 1 1 1 1 1 1 0 0 1 1 -0 -0 1 0 -1 -0 -2 -2 0 0 -1 -1 0 1 -1 -1 -1 -0 1
-7 -3 -5 -5 -1 -5 -5 -4 -5 1 1 3 2 2 1 3 2 -0 -0 1 1 1 1 0 0 1 0 0 0 1 2 2 1 1 -0 -1 1 0 1 1 1 3 0 3 1 -0 -0 -1 1
-5 -3 -11 -6 -5 -1 -4 -1 -8 0 -0 1 3 1 3 3 -1 0 1 1 1 1 0 0 -0 -1 -2 -1 -2 -2 -1 -0 -0 0 1 1 1 1 0 0 0 -0 1 3 2 0 2 -0 1
-4 -2 -0 -6 -4 -5 -2 -11 -4 -4 -3 -2 -1 0 -1 -0 0 0 1 1 1 0 -0 -2 -1 -1 0 0 1 1 0 -0 -1 -1 0 -1 -1 -1 1 -1 -0 -0 -1 1 1 -1 2 1 -1
-0 -1 -2 -7 -3 -2 -4 -16 0 -1 -2 -3 -0 0 1 1 1 1 1 -0 -2 -2 -2 -0 0 1 -1 -1 -1 -1 -1 -0 0 -1 -2 -1 -2 0 -1 -0 -1 -1 1 1 -0 -2 2 -0 -0
Height
1533 1535 1535 1535 1543 1544 1544 1533 1519 1521 1525 1527 1525 1526 1539 1543 1546 1560 1557 1560 1562 1565 1566 1568 1568 1569 1570 1570 1571 1571 1571 1571 1571 1570 1570 1569 1568 1568 1567 1566 1565 1564 1563 1562 1561 1560 1559 1558 1557
1531 1534 1535 1535 1548 1553 1544 1524 1525 1523 1524 1526 1529 1534 1538 1550 1549 1553 1556 1560 1563 1565 1567 1568 1569 1569 1570 1571 1571 1571 1571 1571 1571 1571 1570 1569 1569 1568 1567 1566 1565 1564 1563 1562 1561 1560 1559 1558 1557
1529 1532 1534 1537 1545 1550 1538 1524 1524 1524 1525 1525 1533 1538 1544 1552 1553 1555 1557 1559 1562 1565 1567 1568 1569 1570 1571 1571 1571 1572 1572 1571 1571 1571 1570 1570 1569 1568 1567 1566 1564 1563 1562 1560 1559 1559 1558 1557 1556
1527 1531 1534 1540 1542 1530 1524 1526 1523 1524 1527 1527 1532 1542 1548 1552 1554 1555 1559 1561 1563 1565 1567 1568 1569 1570 1571 1572 1572 1572 1572 1571 1571 1570 1570 1569 1568 1567 1566 1564 1563 1562 1560 1559 1558 1557 1556 1555 1554
1525 1527 1536 1539 1535 1526 1522 1521 1521 1525 1528 1531 1532 1545 1550 1554 1555 1558 1560 1562 1563 1565 1567 1568 1570 1571 1571 1572 1572 1572 1572 1571 1570 1570 1569 1568 1567 1565 1564 1563 1562 1560 1559 1557 1556 1555 1554 1553 1552
1523 1523 1536 1542 1532 1522 1521 1520 1520 1524 1529 1533 1537 1543 1552 1555 1557 1558 1560 1562 1564 1565 1566 1568 1570 1571 1572 1572 1572 1572 1572 1571 1570 1569 1568 1567 1566 1564 1563 1561 1560 1559 1557 1555 1554 1552 1551 1550 1549
1520 1523 1530 1530 1527 1523 1522 1521 1520 1524 1529 1534 1537 1546 1552 1554 1557 1557 1559 1560 1563 1565 1567 1568 1570 1571 1572 1572 1572 1572 1571 1570 1569 1568 1566 1565 1563 1562 1561 1559 1558 1556 1554 1553 1551 1549 1548 1546 1545
1519 1519 1522 1522 1523 1524 1518 1520 1521 1522 1529 1535 1538 1544 1550 1550 1552 1555 1557 1560 1563 1565 1567 1568 1570 1571 1572 1572 1572 1572 1571 1569 1568 1566 1565 1563 1561 1560 1558 1556 1555 1553 1551 1549 1547 1545 1544 1542 1541
1517 1523 1526 1520 1520 1516 1515 1517 1522 1525 1527 1533 1537 1537 1541 1546 1550 1554 1558 1560 1562 1565 1566 1568 1570 1571 1571 1571 1571 1571 1570 1568 1567 1565 1563 1561 1560 1558 1556 1554 1552 1550 1549 1547 1545 1542 1540 1538 1536
1515 1522 1518 1509 1508 1511 1512 1512 1518 1525 1529 1537 1537 1538 1541 1545 1549 1554 1557 1559 1562 1564 1565 1568 1570 1570 1570 1570 1570 1569 1568 1567 1565 1564 1562 1560 1558 1556 1553 1551 1549 1547 1544 1543 1540 1538 1536 1534 1533
1513 1517 1509 1506 1507 1507 1510 1513 1516 1521 1530 1532 1535 1538 1542 1545 1549 1553 1556 1560 1562 1563 1565 1568 1569 1569 1569 1569 1569 1568 1567 1566 1564 1562 1560 1558 1556 1554 1552 1549 1546 1544 1541 1539 1536 1534 1532 1530 1529
1514 1508 1509 1506 1506 1507 1510 1513 1518 1522 1527 1530 1534 1537 1541 1545 1547 1551 1555 1558 1560 1563 1565 1567 1568 1569 1568 1569 1568 1567 1566 1565 1562 1560 1558 1557 1554 1552 1549 1546 1543 1540 1537 1534 1532 1530 1528 1526 1524
1514 1510 1507 1505 1505 1506 1510 1515 1520 1524 1527 1529 1534 1538 1541 1544 1548 1552 1555 1558 1559 1562 1564 1566 1567 1567 1567 1567 1567 1566 1565 1562 1561 1559 1556 1554 1552 1550 1547 1544 1541 1538 1534 1531 1529 1526 1524 1522 1520
1508 1511 1508 1507 1506 1507 1511 1517 1516 1527 1528 1531 1534 1538 1541 1544 1548 1551 1554 1556 1559 1561 1563 1564 1565 1566 1566 1566 1565 1564 1563 1562 1560 1558 1555 1553 1550 1548 1545 1542 1539 1535 1533 1530 1527 1524 1522 1520 1518
1507 1512 1509 1509 1508 1511 1510 1520 1524 1527 1530 1533 1535 1538 1541 1545 1549 1550 1553 1555 1557 1560 1562 1563 1564 1565 1565 1565 1564 1562 1562 1561 1558 1556 1554 1552 1549 1545 1542 1539 1536 1534 1531 1529 1526 1524 1521 1519 1517
1508 1511 1519 1511 1510 1513 1513 1531 1525 1528 1530 1533 1536 1539 1542 1545 1548 1550 1553 1554 1556 1558 1560 1562 1563 1563 1563 1563 1562 1562 1560 1558 1557 1555 1553 1550 1547 1544 1541 1538 1535 1532 1530 1528 1525 1522 1520 1518 1516
1508 1521 1518 1514 1510 1512 1515 1529 1526 1528 1530 1532 1535 1538 1542 1545 1547 1549 1551 1552 1554 1557 1558 1560 1561 1561 1561 1561 1560 1559 1558 1557 1555 1553 1551 1549 1545 1542 1539 1536 1533 1530 1528 1527 1524 1523 1519 1517 1514
1515 1517 1517 1520 1514 1514 1522 1528 1526 1527 1529 1531 1534 1537 1540 1542 1545 1547 1550 1551 1553 1555 1556 1558 1559 1559 1560 1559 1558 1558 1556 1555 1553 1551 1549 1546 1544 1541 1538 1535 1532 1529 1527 1525 1524 1521 1519 1516 1513
1503 1514 1518 1517 1513 1518 1524 1529 1527 1527 1528 1530 1532 1535 1538 1540 1543 1546 1549 1550 1552 1553 1554 1555 1556 1557 1557 1556 1556 1555 1554 1553 1551 1550 1548 1546 1543 1539 1537 1534 1531 1528 1526 1524 1522 1520 1517 1515 1512
1502 1516 1520 1518 1515 1517 1527 1530 1529 1527 1528 1529 1531 1533 1535 1538 1541 1544 1545 1547 1548 1550 1552 1552 1554 1554 1554 1554 1553 1553 1552 1551 1550 1548 1546 1543 1540 1538 1535 1532 1529 1527 1524 1522 1521 1519 1517 1515 1513
1514 1516 1518 1519 1517 1518 1526 1536 1533 1529 1528 1529 1530 1532 1534 1536 1538 1541 1542 1544 1545 1547 1548 1549 1550 1551 1551 1551 1551 1550 1550 1549 1548 1546 1543 1541 1539 1536 1534 1531 1528 1525 1522 1520 1519 1518 1517 1515 1514
1514 1512 1512 1516 1528 1546 1524 1557 1537 1531 1529 1528 1530 1532 1533 1535 1537 1539 1540 1541 1542 1544 1544 1546 1547 1548 1549 1549 1548 1548 1547 1546 1545 1543 1541 1539 1536 1534 1531 1529 1527 1524 1522 1519 1517 1517 1516 1515 1514
1515 1509 1513 1519 1536 1534 1533 1552 1534 1531 1532 1528 1527 1529 1531 1533 1535 1537 1538 1539 1540 1541 1542 1543 1544 1546 1546 1546 1546 1545 1545 1544 1542 1541 1538 1535 1533 1531 1529 1527 1525 1523 1521 1519 1516 1515 1514 1514 1513
1512 1514 1522 1530 1545 1563 1541 1549 1541 1531 1523 1524 1525 1527 1529 1530 1533 1535 1536 1537 1538 1539 1540 1541 1542 1543 1543 1543 1543 1543 1542 1541 1539 1537 1535 1532 1530 1528 1526 1524 1523 1522 1520 1518 1515 1513 1512 1511 1511
1515 1527 1572 1564 1571 1558 1568 1559 1529 1517 1514 1514 1519 1524 1528 1530 1532 1534 1535 1536 1537 1538 1538 1539 1540 1541 1541 1541 1540 1540 1539 1537 1535 1533 1530 1528 1526 1525 1524 1522 1520 1519 1518 1515 1513 1512 1510 1509 1508
1522 1527 1554 1560 1571 1557 1549 1546 1527 1515 1512 1512 1517 1522 1526 1529 1531 1533 1535 1535 1536 1537 1537 1538 1538 1538 1538 1538 1537 1536 1535 1533 1531 1529 1527 1525 1523 1521 1520 1519 1517 1516 1515 1513 1511 1510 1509 1508 1507
1524 1534 1524 1538 1545 1557 1554 1528 1519 1517 1517 1516 1518 1521 1524 1527 1530 1532 1533 1534 1535 1536 1536 1536 1536 1536 1535 1535 1534 1533 1532 1530 1528 1526 1524 1522 1520 1518 1517 1515 1514 1513 1512 1510 1508 1507 1506 1505 1504
1525 1526 1537 1548 1547 1542 1544 1522 1527 1520 1517 1516 1517 1518 1522 1525 1529 1531 1532 1533 1534 1534 1535 1535 1534 1534 1533 1532 1530 1529 1527 1525 1523 1521 1520 1518 1516 1514 1513 1511 1510 1509 1508 1506 1505 1504 1503 1502 1502
1532 1532 1524 1530 1533 1543 1549 1533 1510 1510 1507 1511 1514 1518 1521 1524 1526 1529 1530 1531 1532 1533 1533 1533 1532 1531 1530 1528 1526 1524 1522 1520 1518 1517 1515 1514 1512 1510 1508 1506 1505 1504 1503 1502 1501 1500 1499 1498 1498
1525 1523 1523 1544 1524 1552 1551 1534 1502 1502 1504 1509 1513 1517 1520 1523 1525 1527 1528 1529 1530 1530 1531 1530 1529 1527 1526 1524 1522 1521 1519 1516 1514 1512 1510 1509 1507 1505 1504 1502 1500 1499 1498 1497 1496 1496 1495 1494 1493